Lapse_Rate
6.3 6.3 6.3 6.4 6.4 6.2 6.2 6.2 6.3 6.3 6.0 6.0 5.9 5.8 6.0 6.0 6.1 5.6 5.5 5.5 5.3 5.5 5.6 5.6 5.6 5.8 6.0 6.3 6.6 6.9 7.1 7.2 7.2 7.3 7.3 7.4 7.3 7.3 7.3 7.3 7.3 7.4 7.4
6.5 6.4 6.5 6.6 6.6 6.4 6.3 6.3 6.4 6.4 6.2 6.0 5.9 6.0 6.1 5.9 6.0 5.7 5.8 5.6 5.5 5.7 5.7 5.6 5.8 5.8 6.0 6.1 6.4 6.6 6.9 7.2 7.3 7.3 7.3 7.3 7.3 7.3 7.3 7.3 7.3 7.2 7.2
6.4 6.5 6.6 6.7 6.5 6.6 6.4 6.3 6.4 6.4 6.4 6.3 6.0 6.1 6.0 6.1 5.8 5.9 5.9 5.7 5.5 5.6 5.9 5.7 5.7 6.0 6.0 6.0 6.2 6.4 6.8 7.0 7.2 7.1 7.2 7.2 7.2 7.2 7.2 7.2 7.2 7.1 7.0
6.2 6.4 6.8 6.7 6.5 6.5 6.6 6.3 6.4 6.4 6.4 6.3 6.2 6.1 6.1 6.1 6.1 6.0 5.8 5.7 5.5 4.8 5.5 5.7 5.3 5.7 6.0 6.0 6.2 6.3 6.7 6.8 7.0 7.1 7.1 7.1 7.1 7.1 7.1 7.1 7.1 7.1 7.0
6.4 6.3 6.8 6.7 6.7 6.5 6.5 6.4 6.4 6.4 6.3 6.3 6.2 6.2 6.3 6.1 6.1 5.9 5.6 5.4 5.3 5.0 4.4 5.3 5.4 5.4 5.9 6.1 6.2 6.2 6.4 6.6 6.7 6.8 6.9 6.9 6.9 6.9 6.9 6.9 6.9 6.9 6.9
6.7 6.5 6.6 6.8 6.8 6.6 6.6 6.4 6.5 6.4 6.4 6.3 6.1 6.1 6.2 5.9 5.9 5.8 5.5 5.2 5.0 4.6 4.6 4.3 5.4 5.4 5.3 5.8 6.1 6.1 6.1 6.2 6.4 6.5 6.5 6.5 6.5 6.6 6.6 6.5 6.5 6.5 6.5
6.9 6.8 6.6 6.7 6.6 6.6 6.9 6.6 6.4 6.4 6.5 6.5 6.3 6.1 6.2 6.0 5.9 5.7 5.7 4.7 4.8 4.4 4.3 4.7 5.8 5.2 5.2 5.5 6.1 6.1 6.1 6.0 6.0 6.1 6.2 6.1 6.1 6.2 6.2 6.3 6.3 6.3 6.3
6.3 6.5 6.5 6.3 6.2 6.3 6.7 6.9 6.5 6.4 6.5 6.6 6.5 6.2 6.1 6.1 6.1 5.7 5.5 5.3 5.5 5.2 5.1 4.9 5.2 5.4 5.3 5.4 5.6 5.9 6.0 5.8 5.9 5.9 6.0 5.7 5.7 5.8 6.0 6.0 5.9 6.0 6.0
5.6 5.6 5.9 6.2 6.1 6.1 6.4 6.5 6.5 6.2 6.5 6.6 6.7 6.2 6.2 6.4 6.3 6.0 5.7 5.5 5.2 5.5 5.0 5.1 5.2 5.4 5.2 5.2 5.5 5.7 5.7 5.6 5.7 5.5 5.6 5.4 5.5 5.6 5.6 5.6 5.6 5.6 5.7
5.9 5.7 5.8 6.0 6.1 5.9 6.0 6.4 6.4 6.1 6.1 6.4 6.5 6.3 6.3 6.2 5.9 6.1 5.8 5.6 5.5 5.7 5.6 5.4 5.3 5.3 5.1 5.1 5.3 5.2 5.1 5.4 5.3 5.0 5.0 5.1 5.1 5.4 5.5 5.2 5.2 5.3 5.3
6.1 5.8 5.8 5.8 6.0 5.8 5.7 5.8 6.3 6.3 6.2 6.2 6.4 6.2 6.2 6.1 6.0 5.9 5.8 5.8 5.5 5.5 5.6 5.4 5.3 5.5 5.3 5.0 5.4 5.3 4.8 4.6 4.5 4.3 4.8 4.6 4.6 4.9 5.4 5.2 4.5 4.8 5.0
6.0 5.9 5.7 5.6 5.7 6.0 5.9 5.8 6.1 6.1 6.0 6.0 6.2 6.2 6.1 6.0 5.9 5.8 5.7 5.6 5.4 5.3 5.3 5.1 5.2 5.3 5.3 5.3 5.3 5.5 4.9 4.5 4.3 4.0 4.3 4.7 4.3 4.5 4.6 4.8 4.3 4.2 4.8
6.1 6.0 5.8 5.4 5.4 5.6 6.0 5.7 5.6 5.6 6.1 6.1 6.2 6.1 5.9 5.8 5.9 5.7 5.5 5.5 5.5 5.4 5.6 5.6 5.6 5.3 5.1 5.5 5.7 5.4 5.1 4.6 4.4 4.5 4.4 4.5 4.5 4.8 4.7 4.5 4.6 4.6 4.4
6.3 6.2 6.2 5.7 5.1 5.5 5.6 5.9 5.5 5.6 5.4 5.6 5.8 5.9 5.8 5.7 5.6 5.5 5.7 5.7 5.4 5.2 5.6 5.6 5.3 5.3 4.9 5.1 5.2 5.2 4.9 4.9 4.2 4.5 4.9 4.9 4.5 4.6 4.7 4.6 4.7 4.6 4.5
6.2 6.2 5.9 5.8 5.9 5.8 5.8 5.4 6.1 5.6 5.5 5.5 5.6 5.6 5.7 5.7 5.6 5.5 5.3 5.5 5.5 5.5 5.6 5.4 5.3 5.2 5.0 5.1 5.1 5.0 5.0 4.9 5.0 5.0 5.1 5.1 5.0 4.5 4.2 4.4 4.5 4.3 4.6
5.9 6.1 6.3 5.7 5.9 5.5 5.9 5.8 6.2 6.0 5.5 5.2 5.3 5.6 5.5 5.6 5.5 5.4 5.3 5.2 5.1 5.3 5.5 5.5 5.4 5.1 5.1 5.3 5.0 4.9 4.9 4.9 5.1 5.2 5.1 5.1 5.0 4.7 4.6 4.7 4.4 4.4 4.1
6.2 6.0 6.3 6.0 5.9 5.9 5.8 5.3 6.3 5.8 5.7 5.4 5.4 5.4 5.5 5.5 5.4 5.3 5.3 5.2 5.1 5.1 5.2 5.0 5.2 5.3 5.2 5.1 4.9 4.7 5.0 5.1 5.0 5.0 5.0 5.1 4.9 4.8 4.9 4.9 4.8 4.8 4.4
5.9 6.1 6.0 6.2 6.0 6.0 6.0 6.1 6.1 6.1 5.8 5.7 5.6 5.6 5.5 5.4 5.4 5.3 5.3 5.3 5.2 5.0 4.9 4.9 4.7 4.9 5.1 5.1 5.0 4.9 4.6 4.8 4.8 4.6 4.6 4.8 4.9 4.9 4.9 4.9 4.6 4.6 4.4
5.9 5.9 5.9 6.0 6.1 5.8 5.9 6.0 5.8 5.9 5.8 5.8 5.7 5.4 5.4 5.7 5.3 5.3 5.3 5.4 5.2 4.8 4.8 4.7 4.8 4.5 4.7 4.8 5.1 5.2 5.2 4.9 4.8 4.4 4.8 4.9 4.7 4.7 5.0 4.9 4.7 4.4 4.4
5.8 5.9 6.1 6.1 6.1 6.0 6.0 6.0 5.9 5.9 5.8 5.7 5.6 5.3 5.0 5.9 5.5 5.5 5.4 5.4 5.2 4.9 4.7 4.7 4.7 4.8 4.6 4.6 4.8 5.0 5.0 4.8 4.6 4.7 4.9 5.0 4.8 4.7 4.7 4.8 4.7 4.2 4.3
6.0 6.8 6.1 6.1 6.2 6.2 6.1 6.1 5.9 5.8 5.9 5.7 5.4 5.4 5.3 5.5 5.2 5.3 5.2 5.1 5.2 5.0 4.9 4.9 4.9 4.9 4.9 4.8 4.9 4.9 4.8 5.0 4.9 4.9 4.8 4.9 5.0 5.0 5.1 4.9 4.9 4.7 4.3
5.9 6.0 6.0 6.0 6.1 6.2 6.3 6.2 6.1 5.9 6.1 6.0 5.4 5.8 5.9 5.5 5.5 5.3 5.3 5.5 5.3 5.1 5.1 5.2 5.0 5.2 5.1 5.1 5.1 4.8 4.9 5.0 4.8 5.0 4.8 5.1 5.0 4.8 4.8 4.8 4.9 4.8 4.6
7.2 6.4 6.3 5.8 6.1 6.5 6.4 6.4 6.3 6.0 5.7 6.0 5.7 5.8 5.7 5.4 5.4 5.3 5.4 5.6 5.3 5.2 5.1 5.3 5.3 5.3 5.1 5.1 5.0 4.8 4.9 5.0 4.9 4.9 5.2 4.9 5.2 5.1 4.8 4.7 4.9 4.9 4.3
6.8 6.8 6.0 5.8 6.3 6.4 6.7 6.7 6.3 5.8 5.9 5.8 5.8 5.7 5.9 5.8 5.1 5.1 5.3 5.3 5.4 5.4 5.1 5.2 5.0 5.2 5.1 4.6 4.8 4.8 4.9 5.0 5.0 4.9 5.0 5.3 5.2 5.0 5.0 5.0 4.9 4.6 4.3
7.2 6.9 6.2 6.2 6.0 6.2 6.6 6.1 6.1 5.8 6.1 6.1 5.9 5.6 5.9 5.9 5.7 5.3 5.4 5.6 5.2 5.2 5.2 5.1 5.1 5.1 5.1 5.1 5.0 4.9 5.0 5.2 5.0 5.1 5.1 5.2 5.1 4.8 4.8 4.8 4.8 4.6 4.6
6.9 6.5 5.8 6.0 6.0 6.4 5.9 5.8 5.7 6.4 6.5 6.1 5.8 5.7 5.6 5.8 5.9 5.7 5.6 5.4 5.4 5.2 5.3 5.4 5.3 5.2 5.1 5.0 5.0 5.2 5.0 4.9 5.1 5.1 5.1 5.0 4.8 4.4 4.5 4.7 4.7 4.7 4.6
Wind_Speed
9 13 12 14 13 17 15 13 14 12 10 12 9 7 4 11 17 19 20 18 20 19 17 18 16 18 22 20 17 17 15 16 16 16 16 16 16 17 16 15 15 15 15
13 11 11 12 14 16 17 17 12 9 8 11 7 7 9 13 14 18 18 21 22 20 17 18 18 21 21 20 16 16 16 16 16 15 15 15 14 15 14 14 14 13 12
17 14 10 8 13 16 17 16 12 8 6 5 5 8 10 15 14 15 17 18 20 20 18 19 20 21 21 22 15 15 15 15 15 15 15 14 14 14 13 13 13 13 12
19 13 7 7 16 14 16 9 4 4 5 4 3 3 7 11 13 12 15 16 18 15 16 17 19 22 21 21 17 15 15 15 15 15 14 14 13 12 13 12 12 11 11
19 14 9 12 18 11 7 6 2 4 3 3 4 3 4 4 10 9 9 15 17 14 13 17 19 21 20 18 19 17 16 15 15 14 14 13 13 12 12 11 11 10 10
19 15 11 13 15 7 4 4 5 2 3 5 4 4 3 4 6 9 10 12 13 14 15 14 20 20 21 19 20 18 17 16 16 15 14 13 13 12 12 11 10 10 9
20 16 11 11 13 9 8 8 5 6 2 5 4 3 4 4 4 3 8 8 8 12 15 17 18 17 20 21 20 19 18 18 17 16 15 14 13 12 12 11 10 9 9
19 17 12 10 10 8 9 8 9 3 2 6 4 3 2 2 1 1 5 5 9 12 12 16 19 16 17 19 21 19 19 18 17 16 15 14 13 13 12 11 11 10 9
20 21 20 12 11 10 10 10 11 11 4 3 11 4 3 4 3 1 2 4 5 5 11 15 18 21 21 20 22 20 20 19 18 17 16 15 14 14 13 12 11 10 10
16 19 19 17 12 7 11 10 9 10 5 8 1 2 2 4 3 3 2 3 4 5 6 9 15 18 21 21 24 23 23 21 19 18 17 17 17 15 14 12 12 11 11
14 16 17 16 15 12 11 12 9 12 10 9 6 3 2 1 2 3 4 5 1 3 5 8 12 13 18 22 22 25 28 27 24 21 20 19 19 19 18 18 17 16 16
10 14 14 13 14 14 13 12 12 13 12 10 8 6 4 4 3 3 3 7 8 3 4 7 9 13 19 21 22 27 30 29 26 24 22 22 23 23 23 23 21 19 19
11 14 15 13 12 15 14 14 13 13 13 11 13 8 4 4 4 3 3 3 3 3 3 3 8 14 17 18 18 25 31 32 27 26 25 24 24 23 24 23 23 24 22
13 16 15 16 15 16 15 15 11 11 12 10 13 11 6 7 4 4 4 4 2 1 2 4 5 12 16 19 22 23 23 31 32 28 27 27 24 22 25 22 25 25 24
13 17 18 19 18 16 15 16 12 14 13 11 12 11 8 7 6 5 4 4 5 4 4 4 4 11 14 17 19 22 21 24 30 31 28 28 28 23 22 24 27 23 23
17 17 18 19 17 17 17 16 14 15 14 11 9 12 11 7 9 6 4 4 4 4 4 3 5 4 15 13 19 22 23 24 27 28 29 30 31 30 27 21 22 26 28
21 19 17 17 18 17 17 16 16 16 16 15 14 13 13 10 8 7 5 4 5 4 4 4 4 5 6 6 10 19 21 21 22 25 27 29 31 31 28 28 27 24 23
14 20 19 18 16 18 18 19 18 16 18 17 15 14 12 8 11 9 7 9 9 6 4 6 5 4 6 6 11 10 15 18 20 25 25 27 27 27 28 27 28 29 27
17 14 18 20 17 17 18 19 19 17 17 15 14 15 16 12 11 8 9 8 6 5 6 3 5 3 4 2 2 3 4 10 17 22 23 24 27 26 25 25 25 26 28
10 17 17 18 18 17 17 18 19 18 18 16 16 15 15 15 16 12 11 10 7 7 6 6 3 3 3 3 3 6 5 3 5 11 15 19 18 19 21 20 21 24 29
9 14 17 17 18 17 14 18 19 18 18 17 16 16 15 14 16 14 10 11 10 9 6 7 5 3 4 3 6 3 6 3 5 5 3 5 11 15 16 19 19 23 26
9 12 19 18 18 14 21 23 20 17 17 17 16 15 14 16 16 16 15 15 15 12 12 8 9 8 12 9 3 4 4 3 4 8 5 5 10 5 10 15 18 19 21
5 12 14 16 18 18 22 26 23 16 16 16 16 15 14 11 15 14 16 15 16 17 16 12 11 10 9 10 7 6 6 5 6 3 3 3 3 4 4 9 12 16 18
3 3 9 16 17 13 19 27 26 17 14 16 16 16 16 14 15 13 12 13 12 12 12 8 11 10 7 5 9 8 8 5 2 2 3 4 2 3 0 4 3 6 12
5 6 4 11 15 13 23 19 20 14 13 13 11 12 13 13 14 16 12 12 11 10 13 19 14 12 13 14 11 5 4 4 3 3 4 3 2 1 1 2 5 2 2
7 8 9 6 13 7 4 21 16 8 10 9 8 8 13 12 16 18 13 11 11 10 9 6 6 6 12 12 16 9 5 6 3 1 4 5 3 3 2 1 2 4 5
Wind_Direction
164 163 163 150 158 165 166 176 186 194 201 225 210 205 154 164 154 151 161 160 146 147 146 147 146 146 130 124 121 123 127 127 123 120 117 113 109 111 108 106 105 100 98
160 163 164 173 172 170 178 179 196 188 208 184 193 145 132 122 136 149 162 155 152 153 155 156 150 145 134 127 130 132 133 132 131 126 126 119 120 116 114 108 103 103 100
168 167 169 186 177 171 180 184 198 196 180 159 152 150 121 126 137 150 153 152 160 159 163 164 158 154 144 131 142 143 143 139 136 135 130 128 128 123 118 117 115 110 105
177 169 172 181 176 165 178 169 170 176 148 167 147 176 125 126 136 150 151 149 156 168 167 177 164 160 153 143 148 150 150 146 148 145 141 139 134 134 128 126 124 120 116
180 174 172 179 162 165 154 159 152 146 153 159 137 122 133 129 135 159 154 151 159 172 169 177 165 161 155 153 151 155 156 155 154 154 151 149 145 144 140 136 132 128 122
177 173 164 172 167 161 161 164 146 164 153 155 125 91 95 131 133 162 158 153 166 173 173 164 164 166 161 161 157 160 163 164 163 163 160 160 156 153 152 148 145 139 133
176 168 170 169 172 176 175 174 155 158 122 138 116 68 54 51 115 171 160 162 171 175 171 166 170 175 171 168 167 165 169 171 172 172 169 170 169 165 163 160 154 149 144
173 169 170 176 176 177 176 182 179 136 131 172 127 109 123 353 35 134 173 186 190 175 171 169 173 182 177 169 172 172 173 178 180 180 178 180 179 177 175 172 168 164 159
176 179 177 174 180 181 187 187 183 173 144 214 157 145 137 207 131 193 211 183 172 174 173 174 180 188 188 181 178 179 180 186 186 187 187 188 189 188 186 186 183 178 175
190 181 178 176 177 185 191 191 189 172 140 182 144 137 144 145 163 169 252 222 194 183 173 179 182 191 193 192 188 186 187 191 196 196 195 196 199 198 198 194 196 193 194
192 189 178 182 183 181 189 191 186 179 180 181 183 141 146 174 144 142 174 184 219 232 185 189 192 182 189 193 193 195 196 193 200 205 204 204 206 206 201 195 199 204 206
195 189 184 182 188 185 181 186 192 190 188 187 189 181 169 167 182 154 126 183 194 212 209 195 193 193 190 192 198 203 204 201 201 210 214 212 216 211 210 207 206 207 210
198 193 184 188 187 190 181 187 191 194 187 187 188 188 162 175 159 156 132 152 149 192 206 227 208 203 194 199 204 207 210 208 206 216 220 227 226 223 221 220 217 214 210
200 192 189 187 195 199 189 186 185 191 192 191 187 195 187 193 168 165 152 139 97 171 170 194 196 197 197 205 216 214 214 215 216 217 223 235 238 232 228 223 225 226 223
196 194 195 196 194 194 195 186 188 195 196 186 187 188 198 201 195 184 165 152 149 174 205 211 181 202 206 203 212 214 215 221 224 226 229 234 244 244 235 235 231 234 237
188 190 193 198 196 193 191 189 190 193 195 197 185 190 200 195 200 194 177 161 156 160 192 179 218 181 201 203 214 209 214 218 226 230 236 238 242 247 250 245 245 235 235
183 178 186 191 191 192 192 191 193 191 194 203 197 183 197 187 194 193 177 169 173 155 167 216 204 206 184 193 209 214 217 216 225 231 237 240 241 245 245 249 249 247 247
206 183 181 186 192 194 192 192 192 192 194 199 200 191 192 180 188 187 186 190 191 180 151 187 199 197 191 197 203 203 211 218 217 230 235 239 243 244 246 248 247 245 244
208 191 186 185 191 198 197 197 196 194 195 195 195 196 198 185 191 192 191 189 189 184 193 149 199 185 199 164 171 199 201 221 220 227 236 241 245 244 246 249 247 245 244
266 192 193 187 188 193 202 199 199 195 194 196 195 202 200 197 207 193 192 192 182 178 183 203 178 183 179 195 176 208 220 209 218 217 239 240 245 245 247 244 247 248 247
260 220 192 195 190 192 198 200 199 198 196 196 198 200 199 194 201 198 191 194 185 196 187 202 205 169 190 181 208 183 213 185 225 197 209 226 228 238 241 245 247 248 249
251 250 204 190 190 194 190 189 194 195 192 191 195 197 198 195 202 198 195 195 191 193 200 202 216 218 224 214 171 183 192 178 237 197 192 247 198 228 229 243 247 243 242
279 249 202 191 191 198 187 187 187 195 191 193 193 190 193 194 199 199 201 196 198 194 197 197 208 212 220 204 186 188 194 197 211 184 152 237 186 237 226 251 256 250 247
286 269 241 203 191 184 177 186 181 190 190 193 195 191 188 185 188 187 191 201 207 205 201 194 209 217 212 173 187 203 206 198 71 143 152 202 168 231 281 242 314 256 241
18 19 351 220 194 186 168 182 181 186 181 189 187 187 189 181 177 180 188 197 201 206 209 206 201 202 197 196 185 137 170 156 196 217 199 155 191 202 289 265 241 288 2
26 55 42 28 60 67 82 170 177 162 176 180 171 172 176 175 169 180 192 190 196 202 191 189 209 203 203 200 193 194 174 188 146 168 210 166 152 160 298 212 299 276 282